Weather Roundup
Issued by NWS Chicago, IL

Home | Current Version | Previous Version | Graphics & Text | Print | Product List | Glossary On
Versions: 1 2 3 4 5 6 7 8 9 10 11 12 13 14 15 16 17 18 19 20 21 22 23 24 25 26 27 28 29 30 31 32 33 34 35 36 37 38 39 40 41 42 43 44 45 46 47 48 49 50
000
NZUS59 KLOT 171710
HRRLOT

CHICAGO AREA WEATHER ROUNDUP
NATIONAL WEATHER SERVICE CHICAGO/ROMEOVILLE IL
1200 PM CDT THU APR 17 2014

NOTE: "FAIR" INDICATES FEW OR NO CLOUDS BELOW 12,000 FEET WITH NO
SIGNIFICANT WEATHER AND/OR OBSTRUCTIONS TO VISIBILITY.

* THESE STATIONS ARE NOT UNDER NWS QUALITY CONTROL. THEY ALSO MAY NOT
  REPORT WEATHER SUCH AS PRECIPITATION OR FOG.

ILZ005-006-012>014-019>023-171800-
NORTHEAST ILLINOIS

CITY           SKY/WX    TMP DP  RH WIND       PRES   REMARKS
OHARE          MOSUNNY   56  36  47 SW15G24   30.18R
MIDWAY         MOSUNNY   58  36  43 SW16      30.19R
AURORA         PTSUNNY   54  40  59 W16       30.20R
LANSING*       SUNNY     58  35  42 SW15G21   30.20S
JOLIET*        SUNNY     56  35  44 SW10G17   30.22R
WAUKEGAN       MOSUNNY   55  38  52 SW18G25   30.16R
DUPAGE AIRPORT MOSUNNY   56  39  53 SW18G24   30.18R
WHEELING       MOSUNNY   57  38  48 SW12G20   30.18R
KANKAKEE*      MOSUNNY   60  37  43 SW18      30.22S
MORRIS*        SUNNY     56  33  41 SW12G18   30.21R
LEWIS AIRPORT* SUNNY     57  36  46 W16       30.20R
NORTHERLY IS     N/A     56  32  40 W14         N/A
$$

WIZ051-052-058>065-066-070>072-171800-
SOUTHEAST WISCONSIN

CITY           SKY/WX    TMP DP  RH WIND       PRES   REMARKS
MILWAUKEE      CLOUDY    52  36  54 SW18      30.16R
KENOSHA*       PTSUNNY   53  39  59 SW15G25   30.16R
RACINE*        MOSUNNY   54  38  54 W13G23    30.16R
BURLINGTON     CLOUDY    47  38  69 SW14      30.16R
WAUKESHA       CLOUDY    46  36  66 SW14      30.15R
WEST BEND      CLOUDY    48  34  57 W13       30.14R
$$

INZ001>003-010>013-019-020-171800-
NORTHWEST INDIANA

CITY           SKY/WX    TMP DP  RH WIND       PRES   REMARKS
GARY*          MOSUNNY   59  32  36 SW23      30.20
MICHIGAN CITY* NOT AVBL
RENSSELAER*    NOT AVBL
VALPARAISO     SUNNY     58  31  35 SW16G23   30.21S
$$

LMZ740>746-171800-
SOUTHERN LAKE MICHIGAN

STATION/POSITION TIME  SKY/WX   TEMP WIND        PRES    VSBY
                                AIR  DIR/SP/G
                 (UTC)          (F)  (DEG/KT/KT) (MB)    (MI)
HARRISON CRIB    1700            53  210/ 15/ 19   N/A
BURNHAM HARBOR   1700            56  210/  9/ 16   N/A
CALUMET HARBOR   1700            56  220/ 13/ 20 1022.9R
BURNS HARBOR     NOT AVBL
MICHIGAN CITY    1700            55  200/ 18/ 23   N/A
$$

ABBREVIATIONS USED IN REMARKS
   TC - TEMPERATURE IN CELSIUS
  WCI - WIND CHILL INDEX
   HX - HEAT INDEX
  VSB - VISIBILITY
$$



USA.gov is the U.S. government's official web portal to all federal, state and local government web resources and services.